This demonstration page uses our WeatherBlox Daily Observations layout. Learn more.

Left ArrowRight Arrow

39.08367, -84.50855

Hourly Observations for November 22, 2015

Temp ( °F °C ) Dew Point ( °F °C ) Humidity (%) Winds ( mph kmh ) Pressure ( in mb ) Visibility ( mi km ) Precip ( " mm )
12:14 am 00:14 Cloudy 36 2 28 -2 75 75 W 14 22 30.12 1020 10 16 0.00 0.00
12:24 am 00:24 Cloudy 36 2 28 -2 75 75 W 13 20 30.12 1020 10 16 0.00 0.00
12:53 am 00:53 Cloudy 34 1.1 29 -1.7 82 82 W 13 20 30.14 1021 10 16 0.00 0.00
1:53 am 01:53 Cloudy 34 1.1 29 -1.7 82 82 W 10 17 30.16 1021 10 16 0.00 0.00
2:51 am 02:51 Cloudy 34 1 28 -2 81 81 W 7 11 30.18 1022 10 16 0.00 0.00
2:53 am 02:53 Cloudy 34 1.1 29 -1.7 82 82 W 12 19 30.17 1022 10 16 0.00 0.00
3:53 am 03:53 Cloudy 33 0.6 29 -1.7 85 85 W 10 17 30.18 1022 10 16 0.00 0.00
4:53 am 04:53 Cloudy 32 0 28 -2.2 85 85 W 8 13 30.19 1022 10 16 0.00 0.00
5:24 am 05:24 Cloudy 32 0 28 -2 87 87 NW 8 13 30.21 1023 10 16 0.00 0.00
5:51 am 05:51 Cloudy 32 0 27 -3 80 80 NW 6 9 30.21 1023 10 16 0.00 0.00
5:53 am 05:53 Cloudy 32 0 27 -2.8 82 82 WNW 6 9 30.20 1023 10 16 0.00 0.00
6:53 am 06:53 Cloudy 31 -0.6 26 -3.3 82 82 WNW 9 15 30.21 1023 10 16 0.00 0.00
7:53 am 07:53 Cloudy 31 -0.6 25 -3.9 79 79 NW 7 11 30.23 1024 10 16 0.00 0.00
8:53 am 08:53 Cloudy 30 -1.1 24 -4.4 79 79 NW 9 15 30.26 1025 10 16 0.00 0.00
9:53 am 09:53 Cloudy 30 -1.1 24 -4.4 79 79 N 8 13 30.28 1025 10 16 0.00 0.00
10:53 am 10:53 Cloudy 30 -1.1 23 -5 75 75 NW 9 15 30.29 1026 10 16 0.00 0.00
11:53 am 11:53 Cloudy 30 -1.1 23 -5 75 75 NW 8 13 30.29 1026 10 16 0.00 0.00
12:53 pm 12:53 Mostly Cloudy 34 1.1 21 -6.1 59 59 VRB 5 7 30.26 1025 10 16 0.00 0.00
1:32 pm 13:32 Partly Cloudy 34 1 19 -7 56 56 S 5 7 30.27 1025 10 16 0.00 0.00
1:53 pm 13:53 Partly Cloudy 36 2.2 21 -6.1 55 55 NW 5 7 30.24 1024 10 16 0.00 0.00
2:53 pm 14:53 Mostly Sunny 37 2.8 17 -8.3 44 44 W 6 9 30.21 1023 10 16 0.00 0.00
3:53 pm 15:53 Sunny 36 2.2 12 -11.1 37 37 NNW 6 9 30.22 1023 10 16 0.00 0.00
4:53 pm 16:53 Sunny 34 1.1 12 -11.1 40 40 VRB 5 7 30.22 1023 10 16 0.00 0.00
5:53 pm 17:53 Clear 31 -0.6 12 -11.1 45 45 NNW 5 7 30.23 1024 10 16 0.00 0.00
6:53 pm 18:53 Clear 27 -2.8 17 -8.3 66 66 Calm 30.24 1024 10 16 0.00 0.00
7:53 pm 19:53 Clear 25 -3.9 18 -7.8 75 75 Calm 30.25 1024 10 16 0.00 0.00
8:53 pm 20:53 Clear 23 -5 17 -8.3 78 78 Calm 30.25 1024 10 16 0.00 0.00
9:53 pm 21:53 Clear 23 -5 19 -7.2 85 85 Calm 30.24 1024 10 16 0.00 0.00
10:53 pm 22:53 Clear 22 -5.6 19 -7.2 89 89 Calm 30.25 1024 10 16 0.00 0.00
11:53 pm 23:53 Clear 21 -6.1 19 -7.2 92 92 Calm 30.26 1025 10 16 0.00 0.00

Powered by AerisWeather